This is the latest recevied weather packets stored in our database for station/object N4WFF. If no packets are shown the sender has not sent any weather packets the latest 10 day(s).
| Time | Temp. | Humidity | Pressure | Rain* | Wind** | Luminosity | Snow |
|---|---|---|---|---|---|---|---|
| 1777211456 | 23.33° C | 80% | 1013 hPa | 0 mm | - | 325 W/m² | - |
| 1777211155 | 23.33° C | 80% | 1012.9 hPa | 0 mm | - | 362 W/m² | - |
| 1777210855 | 23.33° C | 80% | 1012.9 hPa | 0 mm | - | 269 W/m² | - |
| 1777210556 | 22.78° C | 81% | 1012.9 hPa | 0 mm | - | 354 W/m² | - |
| 1777210256 | 22.78° C | 82% | 1012.8 hPa | 0 mm | - | 405 W/m² | - |
| 1777209955 | 22.22° C | 82% | 1012.8 hPa | 0 mm | - | 390 W/m² | - |
| 1777209655 | 21.67° C | 84% | 1012.8 hPa | 0 mm | - | 391 W/m² | - |
| 1777209356 | 21.11° C | 85% | 1012.8 hPa | 0 mm | - | 323 W/m² | - |
| 1777209056 | 20.56° C | 85% | 1012.8 hPa | 0 mm | - | 222 W/m² | - |
| 1777208755 | 20° C | 89% | 1012.8 hPa | 0 mm | - | 311 W/m² | - |
| 1777208456 | 18.89° C | 91% | 1012.7 hPa | 0 mm | - | 303 W/m² | - |
| 1777208155 | 18.33° C | 94% | 1012.7 hPa | 0 mm | - | 289 W/m² | - |
| 1777207856 | 17.78° C | 95% | 1012.7 hPa | 0 mm | - | 265 W/m² | - |
| 1777207555 | 17.22° C | 97% | 1012.8 hPa | 0 mm | - | 233 W/m² | - |
| 1777207256 | 16.67° C | 97% | 1012.8 hPa | 0 mm | - | 219 W/m² | - |
| 1777206955 | 16.11° C | 97% | 1012.8 hPa | 0 mm | - | 219 W/m² | - |
| 1777206655 | 16.11° C | 97% | 1012.8 hPa | 0 mm | - | 209 W/m² | - |
| 1777206356 | 15.56° C | 97% | 1012.7 hPa | 0 mm | - | 157 W/m² | - |
| 1777206056 | 15° C | 97% | 1012.7 hPa | 0 mm | - | 76 W/m² | - |
| 1777205756 | 15° C | 97% | 1012.6 hPa | 0 mm | - | 71 W/m² | - |
| 1777205455 | 14.44° C | 97% | 1012.5 hPa | 0 mm | - | 71 W/m² | - |
| 1777205155 | 14.44° C | 97% | 1012.5 hPa | 0 mm | - | 73 W/m² | - |
| 1777204856 | 14.44° C | 97% | 1012.4 hPa | 0 mm | - | 69 W/m² | - |
| 1777204555 | 13.89° C | 97% | 1012.3 hPa | 0 mm | - | 70 W/m² | - |
| 1777204256 | 13.89° C | 97% | 1012.2 hPa | 0 mm | - | 69 W/m² | - |
* Rain latest hour (hover to see other rain measurements)
** Current wind speed in m/s (hover to see current wind gust speed)